Location: Beeston
(52.7000°N, 0.8167°E)
Time: 07:10:56
(UTC+00:00)

Cosmos 1980 - Pass Details

Date: 15 May 2026
Orbit: 838 x 845 km, 71.0° (Epoch: 5 June)

Event Time Altitude Azimuth Distance (km) Brightness Sun altitude
Rises 22:39:07 0° 329° (NNW) 3,407 8.4 -16.5°
Reaches altitude 10° 22:41:38 10° 334° (NNW) 2,470 7.4 -16.6°
Maximum altitude 22:47:11 54° 52° (NE) 1,022 4.2 -16.8°
Enters shadow 22:51:12 19° 124° (ESE) 1,924 5.1 -17.0°
